User: anonymous   Login
Location: Fort Hays State University
(38.8712°N, 99.3432°W)
Time: 10:58:19
(UTC-06:00)
Language:

ALOS - Orbit

View from above orbital plane
View from above orbital plane
View from above satellite
View from above satellite

Ground track
Ground track

The orbit data is extracted from the following two-line orbital elements,

1 28931U 06002A   17350.41453260  .00000148  00000-0  37882-4 0  9997
2 28931  97.8302   8.5243 0002527  88.1396 272.0102 14.62436187634095
Epoch (UTC): 16 December 2017 09:56:55
Eccentricity: 0.0002527
inclination: 97.8302°
perigee height: 683 km
apogee height: 687 km
right ascension of ascending node: 8.5243°
argument of perigee: 88.1396°
revolutions per day: 14.62436187
mean anomaly at epoch: 272.0102°
orbit number at epoch: 63409

The dashed part of the orbit path shows where the satellite is in the earth's shadow,  

DLR